Location: Edinburgh
(55.9500°N, 3.1600°W)
Time: 12:08:04
(UTC+00:00)

N. Korean satellite - Pass Details

Date: 14 October 2017
Orbit: 461 x 513 km, 97.2° (Epoch: 16 December)

Event Time Altitude Azimuth Distance (km) Brightness Sun altitude
Rises 19:45:10 0° 191° (SSW) 2,538 10.3 -13.5°
Reaches altitude 10° 19:47:26 10° 203° (SSW) 1,654 9.5 -13.8°
Maximum altitude 19:50:33 28° 265° (W) 917 8.8 -14.2°
Drops below altitude 10° 19:53:39 10° 326° (NNW) 1,644 9.8 -14.7°
Sets 19:55:54 0° 339° (NNW) 2,520 10.6 -15.0°
